Location: Newark
(14.1000°N, 87.2167°W)
Time: 19:49:20
(UTC+00:00)

N. Korean satellite - Pass Details

Date: 24 July 2019
Orbit: 457 x 507 km, 97.2° (Epoch: 16 August)

Event Time Altitude Azimuth Distance (km) Brightness Sun altitude
Rises 10:48:48 0° 36° (NE) 2,596 11.4 -10.3°
Reaches altitude 10° 10:51:28 10° 57° (ENE) 1,711 10.9 -9.7°
Maximum altitude 10:53:54 17° 98° (E) 1,341 9.7 -9.2°
Drops below altitude 10° 10:56:19 10° 140° (SE) 1,705 9.6 -8.6°
Sets 10:58:58 0° 161° (SSE) 2,583 10.2 -8.0°
